Weather History for KRCR - January, 2014

Change the Weather History Date:

Thursday, January 23, 2014

  Actual Average Record
Temperature  
Mean Temperature 5 °F -  
Max Temperature 10 °F 34 °F 33 °F (2015)
Min Temperature 0 °F 17 °F 0 °F (2014)
Degree Days  
Heating Degree Days 60    
Moisture  
Dew Point -5 °F    
Average Humidity 65    
Maximum Humidity 78    
Minimum Humidity 56    
Precipitation  
Precipitation 0.00 in - - ()
Sea Level Pressure  
Sea Level Pressure 30.37 in    
Wind  
Wind Speed 12 mph (West)    
Max Wind Speed 17 mph    
Max Gust Speed 23 mph    
Visibility 10 miles    
Events Snow    
Averages and records for this station are not official NWS values.
T = Trace of Precipitation, MM = Missing Value Source: NWS Daily Summary

Daily Weather History Graph

Daily Weather History Graph

Search for Another Location

Airport or City:

Trip Planner

Search our weather history database for the weather conditions in past years. The results will help you decide how hot, cold, wet, or windy it might be!

Date:

Astronomy

Jan. 23, 2014 Rise Set
Actual Time 8:03 AM EST 5:50 PM EST
Civil Twilight 7:33 AM EST 6:20 PM EST
Nautical Twilight 6:59 AM EST 6:53 PM EST
Astronomical Twilight 6:27 AM EST 7:26 PM EST
Moon 12:25 AM EST (1/23) 11:33 AM EST (1/23)
Length of Visible Light 10h 47m
Length of Day
9h 47m
Waning Gibbous, 55% of the Moon is Illuminated
Jan 23
Waning Gibbous
Jan 24
Last Quarter
Jan 30
New
Feb 6
First Quarter
Feb 14
Full

Hourly Weather History & Observations

Time (EST) Temp. Windchill Dew Point Humidity Pressure Visibility Wind Dir Wind Speed Gust Speed Precip Events Conditions
12:15 AM 8.6 °F -6.3 °F 1.4 °F 73% 30.06 in 10.0 mi NW 11.5 mph - N/A   Clear
12:35 AM 8.6 °F -7.7 °F -0.4 °F 67% 30.07 in 10.0 mi WNW 13.8 mph - N/A   Clear
12:55 AM 8.6 °F -8.3 °F -4.0 °F 57% 30.07 in 10.0 mi WNW 15.0 mph 19.6 mph N/A   Clear
1:15 AM 8.6 °F -8.9 °F -4.0 °F 57% 30.08 in 10.0 mi WNW 16.1 mph - N/A   Clear
1:35 AM 8.6 °F -5.5 °F -4.0 °F 57% 30.10 in 10.0 mi West 10.4 mph - N/A   Clear
1:55 AM 6.8 °F -8.6 °F -4.0 °F 61% 30.11 in 10.0 mi West 11.5 mph 18.4 mph N/A   Clear
2:15 AM 6.8 °F -10.0 °F -5.8 °F 56% 30.12 in 10.0 mi WNW 13.8 mph 20.7 mph N/A   Clear
2:35 AM 5.0 °F -13.6 °F -5.8 °F 61% 30.13 in 10.0 mi WNW 16.1 mph 21.9 mph N/A   Clear
2:55 AM 5.0 °F -12.3 °F -4.0 °F 66% 30.14 in 10.0 mi West 13.8 mph 23.0 mph N/A   Clear
3:15 AM 5.0 °F -13.6 °F -4.0 °F 66% 30.15 in 10.0 mi WNW 16.1 mph 21.9 mph N/A   Clear
3:35 AM 5.0 °F -10.8 °F -4.0 °F 66% 30.17 in 10.0 mi West 11.5 mph 21.9 mph N/A   Clear
3:55 AM 3.2 °F -15.3 °F -5.8 °F 66% 30.17 in 10.0 mi West 15.0 mph 20.7 mph N/A   Clear
4:15 AM 3.2 °F -14.6 °F -7.6 °F 61% 30.18 in 10.0 mi West 13.8 mph 21.9 mph N/A   Clear
4:35 AM 1.4 °F -16.9 °F -7.6 °F 66% 30.19 in 10.0 mi West 13.8 mph 20.7 mph N/A   Clear
4:55 AM 1.4 °F -15.3 °F -7.6 °F 66% 30.20 in 10.0 mi West 11.5 mph 21.9 mph N/A   Clear
5:15 AM 1.4 °F -16.1 °F -7.6 °F 66% 30.21 in 10.0 mi West 12.7 mph 18.4 mph N/A   Clear
5:35 AM 1.4 °F -16.1 °F -7.6 °F 66% 30.22 in 10.0 mi West 12.7 mph 18.4 mph N/A   Clear
5:55 AM 1.4 °F -16.1 °F -9.4 °F 61% 30.23 in 10.0 mi West 12.7 mph 19.6 mph N/A   Clear
6:15 AM 1.4 °F -16.1 °F -9.4 °F 61% 30.24 in 10.0 mi West 12.7 mph 17.3 mph N/A   Clear
6:35 AM 1.4 °F -17.6 °F -9.4 °F 61% 30.25 in 10.0 mi West 15.0 mph 19.6 mph N/A   Clear
6:55 AM 1.4 °F -18.2 °F -9.4 °F 61% 30.26 in 10.0 mi West 16.1 mph 21.9 mph N/A   Clear
7:15 AM -0.4 °F -19.2 °F -9.4 °F 66% 30.28 in 10.0 mi West 13.8 mph 23.0 mph N/A   Clear
7:35 AM -0.4 °F -18.4 °F -9.4 °F 66% 30.30 in 10.0 mi West 12.7 mph 18.4 mph N/A   Clear
7:55 AM -0.4 °F -17.6 °F -9.4 °F 66% 30.31 in 10.0 mi West 11.5 mph - N/A   Clear
8:15 AM -0.4 °F -17.6 °F -9.4 °F 66% 30.32 in 10.0 mi West 11.5 mph 16.1 mph N/A   Clear
8:35 AM -0.4 °F -16.7 °F -9.4 °F 66% 30.33 in 10.0 mi West 10.4 mph 16.1 mph N/A   Clear
8:55 AM -0.4 °F -17.6 °F -9.4 °F 66% 30.34 in 10.0 mi West 11.5 mph - N/A   Clear
9:15 AM 1.4 °F -16.9 °F -9.4 °F 61% 30.35 in 10.0 mi West 13.8 mph 19.6 mph N/A   Clear
9:35 AM 1.4 °F -15.3 °F -9.4 °F 61% 30.36 in 10.0 mi West 11.5 mph 18.4 mph N/A   Clear
9:55 AM 1.4 °F -15.3 °F -7.6 °F 66% 30.37 in 10.0 mi West 11.5 mph 18.4 mph N/A   Clear
10:15 AM 3.2 °F -13.1 °F -7.6 °F 61% 30.39 in 10.0 mi West 11.5 mph 19.6 mph N/A   Clear
10:35 AM 3.2 °F -11.3 °F -7.6 °F 61% 30.40 in 10.0 mi West 9.2 mph 18.4 mph N/A   Clear
10:55 AM 5.0 °F -11.6 °F -5.8 °F 61% 30.41 in 10.0 mi West 12.7 mph 17.3 mph N/A   Clear
11:15 AM 5.0 °F -10.0 °F -5.8 °F 61% 30.42 in 10.0 mi West 10.4 mph 20.7 mph N/A   Clear
11:35 AM 5.0 °F -10.0 °F -5.8 °F 61% 30.42 in 10.0 mi West 10.4 mph 18.4 mph N/A   Clear
11:55 AM 6.8 °F -6.9 °F -4.0 °F 61% 30.42 in 10.0 mi West 9.2 mph - N/A   Clear
12:15 PM 8.6 °F -7.7 °F -4.0 °F 57% 30.43 in 10.0 mi West 13.8 mph 19.6 mph N/A   Clear
12:35 PM 8.6 °F -6.3 °F -4.0 °F 57% 30.44 in 10.0 mi West 11.5 mph 17.3 mph N/A   Clear
12:55 PM 8.6 °F -7.0 °F -4.0 °F 57% 30.44 in 10.0 mi WSW 12.7 mph 19.6 mph N/A   Clear
1:15 PM 8.6 °F -7.7 °F -4.0 °F 57% 30.45 in 10.0 mi West 13.8 mph 19.6 mph N/A   Clear
1:35 PM 8.6 °F -8.3 °F -4.0 °F 57% 30.45 in 10.0 mi West 15.0 mph 20.7 mph N/A   Clear
1:55 PM 10.4 °F -4.1 °F -2.2 °F 57% 30.45 in 10.0 mi WSW 11.5 mph 18.4 mph N/A   Clear
2:15 PM 8.6 °F -7.7 °F -4.0 °F 57% 30.45 in 10.0 mi West 13.8 mph - N/A   Scattered Clouds
2:35 PM 10.4 °F -4.8 °F -2.2 °F 57% 30.45 in 10.0 mi WSW 12.7 mph 21.9 mph N/A   Scattered Clouds
2:55 PM 10.4 °F -7.2 °F -2.2 °F 57% 30.46 in 10.0 mi WSW 17.3 mph 20.7 mph N/A   Clear
3:15 PM 10.4 °F -4.8 °F -0.4 °F 62% 30.47 in 10.0 mi West 12.7 mph 18.4 mph N/A   Clear
3:35 PM 10.4 °F -4.8 °F -0.4 °F 62% 30.47 in 10.0 mi West 12.7 mph 21.9 mph N/A   Clear
3:55 PM 10.4 °F -6.0 °F -0.4 °F 62% 30.48 in 7.0 mi West 15.0 mph 19.6 mph N/A   Clear
4:15 PM 10.4 °F -4.1 °F -0.4 °F 62% 30.49 in 10.0 mi WSW 11.5 mph 18.4 mph N/A   Clear
4:35 PM 8.6 °F -5.5 °F -0.4 °F 67% 30.50 in 10.0 mi WSW 10.4 mph 18.4 mph N/A   Clear
4:55 PM 8.6 °F -6.3 °F -0.4 °F 67% 30.50 in 10.0 mi West 11.5 mph 19.6 mph N/A   Clear
5:15 PM 8.6 °F -5.5 °F -0.4 °F 67% 30.51 in 10.0 mi WSW 10.4 mph - N/A   Clear
5:35 PM 8.6 °F -5.5 °F -0.4 °F 67% 30.52 in 10.0 mi WSW 10.4 mph - N/A   Clear
5:55 PM 6.8 °F -8.6 °F -0.4 °F 72% 30.52 in 10.0 mi West 11.5 mph - N/A   Clear
6:15 PM 6.8 °F -6.9 °F -0.4 °F 72% 30.52 in 10.0 mi West 9.2 mph - N/A   Clear
6:35 PM 5.0 °F -10.8 °F -0.4 °F 78% 30.53 in 10.0 mi West 11.5 mph 17.3 mph N/A   Clear
6:55 PM 5.0 °F -10.0 °F -0.4 °F 78% 30.53 in 10.0 mi West 10.4 mph 17.3 mph N/A   Clear
7:15 PM 5.0 °F -10.0 °F -0.4 °F 78% 30.54 in 4.0 mi West 10.4 mph 18.4 mph N/A Snow Light Snow
7:35 PM 6.8 °F -10.0 °F -0.4 °F 72% 30.55 in 5.0 mi West 13.8 mph 19.6 mph N/A Snow Light Snow
7:55 PM 6.8 °F -8.6 °F -0.4 °F 72% 30.55 in 7.0 mi West 11.5 mph - N/A   Scattered Clouds
8:15 PM 5.0 °F -8.1 °F -2.2 °F 72% 30.55 in 10.0 mi WSW 8.1 mph - N/A   Scattered Clouds
8:35 PM 5.0 °F -10.0 °F -4.0 °F 66% 30.55 in 10.0 mi West 10.4 mph 16.1 mph N/A   Clear
8:55 PM 3.2 °F -11.3 °F -4.0 °F 72% 30.55 in 10.0 mi West 9.2 mph - N/A   Clear
9:35 PM 3.2 °F -11.3 °F -4.0 °F 72% 30.55 in 10.0 mi West 9.2 mph - N/A   Scattered Clouds
9:55 PM 3.2 °F -10.3 °F -4.0 °F 72% 30.55 in 10.0 mi West 8.1 mph - N/A   Clear
10:15 PM 3.2 °F -10.3 °F -4.0 °F 72% 30.55 in 10.0 mi West 8.1 mph - N/A   Clear
10:55 PM 1.4 °F -11.3 °F -5.8 °F 72% 30.55 in 10.0 mi West 6.9 mph - N/A   Clear
11:15 PM 1.4 °F -11.3 °F -5.8 °F 72% 30.55 in 10.0 mi WSW 6.9 mph - N/A   Clear
11:35 PM 1.4 °F -12.5 °F -5.8 °F 72% 30.55 in 10.0 mi WSW 8.1 mph - N/A   Clear
11:55 PM -0.4 °F -14.7 °F -5.8 °F 78% 30.55 in 10.0 mi WSW 8.1 mph - N/A   Clear